Port Clinton Carl R Keller Fi, OH

8:20 AM EDT on September 26, 2017 (GMT -0400)
Keller

Weather History for KPCW - October, 2013

Change the Weather History Date:

Saturday, October 12, 2013

  Actual Average (KTTF) Record (KTTF)
Temperature  
Mean Temperature 63 °F -  
Max Temperature 75 °F 61 °F 85 °F (1962)
Min Temperature 51 °F 43 °F 28 °F (1937)
Degree Days  
Heating Degree Days 2    
Growing Degree Days 13 (Base 50)    
Moisture  
Dew Point 57 °F    
Average Humidity 82    
Maximum Humidity 100    
Minimum Humidity 52    
Precipitation  
Precipitation 0.00 in - - ()
Sea Level Pressure  
Sea Level Pressure 30.08 in    
Wind  
Wind Speed 3 mph ()    
Max Wind Speed 10 mph    
Max Gust Speed -    
Visibility 8.8 miles    
Events      
Averages and records for this station are not official NWS values.
T = Trace of Precipitation, MM = Missing Value Source: Averaged Metar Reports

Daily Weather History Graph

Daily Weather History Graph

Search for Another Location

Airport or City:

Trip Planner

Search our weather history database for the weather conditions in past years. The results will help you decide how hot, cold, wet, or windy it might be!

Date:

Astronomy

Oct. 12, 2013 Rise Set
Actual Time 7:40 AM EDT 6:54 PM EDT
Civil Twilight 7:12 AM EDT 7:22 PM EDT
Nautical Twilight 6:40 AM EDT 7:54 PM EDT
Astronomical Twilight 6:08 AM EDT 8:26 PM EDT
Moon 3:07 PM EDT (10/12) 12:38 AM EDT (10/12)
Length of Visible Light 12h 09m
Length of Day
11h 14m
First Quarter, 58% of the Moon is Illuminated
Oct 12
First Quarter
Oct 18
Full
Oct 26
Last Quarter
Nov 3
New
Nov 10
First Quarter

Hourly Weather History & Observations

Time (EDT) Temp. Dew Point Humidity Pressure Visibility Wind Dir Wind Speed Gust Speed Precip Events Conditions
12:13 AM 57.2 °F 55.4 °F 94% 30.07 in 10.0 mi East 4.6 mph - N/A   Clear
12:33 AM 57.2 °F 53.6 °F 88% 30.07 in 10.0 mi ESE 3.5 mph - N/A   Clear
12:53 AM 55.9 °F 54.0 °F 93% 30.07 in 10.0 mi ESE 3.5 mph - N/A   Clear
1:13 AM 57.2 °F 55.4 °F 94% 30.07 in 10.0 mi Calm Calm - N/A   Clear
1:33 AM 55.4 °F 55.4 °F 100% 30.07 in 10.0 mi SE 4.6 mph - N/A   Clear
1:53 AM 54.9 °F 54.0 °F 97% 30.07 in 10.0 mi SE 3.5 mph - N/A   Clear
2:13 AM 55.4 °F 55.4 °F 100% 30.07 in 10.0 mi SE 3.5 mph - N/A   Clear
2:33 AM 57.2 °F 55.4 °F 94% 30.07 in 10.0 mi SE 3.5 mph - N/A   Clear
2:53 AM 55.9 °F 54.0 °F 93% 30.07 in 10.0 mi Calm Calm - N/A   Clear
3:13 AM 57.2 °F 55.4 °F 94% 30.07 in 10.0 mi Calm Calm - N/A   Clear
3:33 AM 57.2 °F 55.4 °F 94% 30.07 in 10.0 mi WNW 3.5 mph - N/A   Clear
3:53 AM 54.9 °F 54.0 °F 97% 30.07 in 10.0 mi Calm Calm - N/A   Clear
4:13 AM 57.2 °F 55.4 °F 94% 30.07 in 10.0 mi Calm Calm - N/A   Clear
4:33 AM 53.6 °F 51.8 °F 94% 30.08 in 10.0 mi Calm Calm - N/A   Clear
4:53 AM 52.9 °F 52.0 °F 97% 30.07 in 10.0 mi Calm Calm - N/A   Clear
5:13 AM 55.4 °F 53.6 °F 94% 30.08 in 9.0 mi Calm Calm - N/A   Clear
5:33 AM 55.4 °F 53.6 °F 94% 30.08 in 10.0 mi Calm Calm - N/A   Clear
5:53 AM 55.9 °F 54.9 °F 96% 30.09 in 10.0 mi Calm Calm - N/A   Clear
6:13 AM 55.4 °F 53.6 °F 94% 30.09 in 10.0 mi Calm Calm - N/A   Clear
6:33 AM 53.6 °F 51.8 °F 94% 30.10 in 10.0 mi Calm Calm - N/A   Clear
6:53 AM 52.9 °F 52.0 °F 97% 30.10 in 10.0 mi Calm Calm - N/A   Clear
7:13 AM 51.8 °F 51.8 °F 100% 30.09 in 10.0 mi Calm Calm - N/A   Clear
7:33 AM 51.8 °F 51.8 °F 100% 30.10 in 10.0 mi Calm Calm - N/A   Clear
7:53 AM 52.9 °F 52.0 °F 97% 30.10 in 8.0 mi Calm Calm - N/A   Clear
8:13 AM 55.4 °F 53.6 °F 94% 30.10 in 9.0 mi Calm Calm - N/A   Clear
8:33 AM 53.6 °F 51.8 °F 94% 30.10 in 10.0 mi Calm Calm - N/A   Clear
8:53 AM 56.8 °F 54.9 °F 93% 30.10 in 10.0 mi Calm Calm - N/A   Clear
9:13 AM 60.8 °F 59.0 °F 94% 30.10 in 8.0 mi SSE 4.6 mph - N/A   Clear
9:34 AM 62.6 °F 57.2 °F 82% 30.11 in 4.0 mi South 3.5 mph - N/A   Haze
9:53 AM 63.9 °F 55.9 °F 75% 30.11 in 4.0 mi SE 3.5 mph - N/A   Haze
10:13 AM 66.2 °F 55.4 °F 68% 30.11 in 3.0 mi SSE 4.6 mph - N/A   Haze
10:33 AM 66.2 °F 53.6 °F 64% 30.11 in 3.0 mi SE 4.6 mph - N/A   Haze
10:53 AM 68.0 °F 54.0 °F 61% 30.11 in 3.0 mi SE 4.6 mph - N/A   Haze
11:13 AM 69.8 °F 55.4 °F 60% 30.10 in 5.0 mi SSE 6.9 mph - N/A   Haze
11:33 AM 69.8 °F 55.4 °F 60% 30.10 in 4.0 mi SSE 4.6 mph - N/A   Haze
11:53 AM 70.0 °F 54.0 °F 57% 30.10 in 7.0 mi Calm Calm - N/A   Clear
12:13 PM 71.6 °F 55.4 °F 57% 30.10 in 10.0 mi South 3.5 mph - N/A   Clear
12:33 PM 71.6 °F 55.4 °F 57% 30.10 in 3.0 mi Calm Calm - N/A   Haze
12:53 PM 74.8 °F 55.9 °F 52% 30.10 in 6.0 mi Calm Calm - N/A   Haze
1:13 PM 75.2 °F 57.2 °F 53% 30.09 in 10.0 mi North 3.5 mph - N/A   Clear
1:33 PM 75.2 °F 57.2 °F 53% 30.09 in 10.0 mi North 5.8 mph - N/A   Clear
1:53 PM 72.0 °F 55.9 °F 57% 30.08 in 10.0 mi NE 5.8 mph - N/A   Clear
2:13 PM 71.6 °F 57.2 °F 60% 30.07 in 10.0 mi ENE 8.1 mph - N/A   Clear
2:33 PM 71.6 °F 57.2 °F 60% 30.07 in 10.0 mi ENE 9.2 mph - N/A   Clear
2:53 PM 70.9 °F 57.9 °F 63% 30.07 in 7.0 mi NE 8.1 mph - N/A   Clear
3:13 PM 71.6 °F 59.0 °F 64% 30.06 in 10.0 mi East 9.2 mph - N/A   Clear
3:33 PM 71.6 °F 57.2 °F 60% 30.06 in 10.0 mi ENE 9.2 mph - N/A   Scattered Clouds
3:53 PM 68.0 °F 56.8 °F 67% 30.06 in 10.0 mi NE 10.4 mph - N/A   Mostly Cloudy
4:13 PM 68.0 °F 57.2 °F 68% 30.07 in 6.0 mi ENE 8.1 mph - N/A   Haze
4:30 PM 69.8 °F 60.8 °F 73% 30.06 in 1.5 mi East 5.8 mph - N/A   Haze
4:53 PM 69.8 °F 59.0 °F 68% 30.06 in 10.0 mi ESE 8.1 mph - N/A   Scattered Clouds
5:13 PM 68.0 °F 59.0 °F 73% 30.06 in 10.0 mi East 4.6 mph - N/A   Scattered Clouds
5:33 PM 68.0 °F 60.8 °F 78% 30.07 in 10.0 mi East 6.9 mph - N/A   Overcast
5:53 PM 66.9 °F 59.9 °F 78% 30.07 in 10.0 mi East 5.8 mph - N/A   Overcast
6:13 PM 66.2 °F 60.8 °F 83% 30.06 in 10.0 mi ESE 9.2 mph - N/A   Overcast
6:33 PM 66.2 °F 59.0 °F 78% 30.07 in 10.0 mi ESE 8.1 mph - N/A   Overcast
6:53 PM 65.8 °F 59.9 °F 81% 30.07 in 10.0 mi ESE 8.1 mph - N/A   Overcast
7:13 PM 64.4 °F 60.8 °F 88% 30.07 in 10.0 mi East 6.9 mph - N/A   Mostly Cloudy
7:33 PM 64.4 °F 60.8 °F 88% 30.07 in 10.0 mi ESE 6.9 mph - N/A   Mostly Cloudy
7:53 PM 64.9 °F 61.0 °F 87% 30.07 in 10.0 mi ESE 6.9 mph - N/A   Overcast
8:13 PM 64.4 °F 60.8 °F 88% 30.08 in 10.0 mi ESE 6.9 mph - N/A   Overcast
8:32 PM 64.4 °F 60.8 °F 88% 30.08 in 10.0 mi SE 4.6 mph - N/A   Scattered Clouds
8:53 PM 63.9 °F 61.9 °F 93% 30.08 in 10.0 mi ESE 4.6 mph - N/A   Mostly Cloudy
9:13 PM 64.4 °F 62.6 °F 94% 30.09 in 10.0 mi ESE 3.5 mph - N/A   Overcast
9:33 PM 66.2 °F 62.6 °F 88% 30.09 in 10.0 mi Calm Calm - N/A   Overcast
9:53 PM 65.8 °F 61.9 °F 87% 30.09 in 10.0 mi Calm Calm - N/A   Overcast
10:13 PM 66.2 °F 62.6 °F 88% 30.09 in 10.0 mi SSE 3.5 mph - N/A   Overcast
10:33 PM 66.2 °F 62.6 °F 88% 30.10 in 10.0 mi SSE 3.5 mph - N/A   Overcast
10:53 PM 65.8 °F 61.9 °F 87% 30.10 in 10.0 mi South 4.6 mph - N/A   Overcast
11:13 PM 68.0 °F 62.6 °F 83% 30.10 in 10.0 mi SSW 5.8 mph - N/A   Overcast
11:33 PM 66.2 °F 62.6 °F 88% 30.10 in 4.0 mi South 5.8 mph - N/A   Haze
11:53 PM 66.9 °F 61.9 °F 84% 30.10 in 8.0 mi South 4.6 mph - N/A   Overcast